No particular awareness of the weather is required.    There are no Weather-warnings


Meteo18 Weather Cam more information Meteo18 Weather Cam


Thunder radar more information blitzortung!


Rain radar more information rain snow radar


Visit our other weather sites:

Template documentation
and downloads

And another site



Weather Underground History page Text

Daily Summary for September 13, 2017 Units:  English    Metric   Both
« Previous Day
Next Day »
Daily Weekly Monthly Yearly Custom
  High: Low: Average:
Temperature: TemperatureC °F 12.4 °F 17.3 °F
Dew Point: DewpointC °F 9.1 °F 14.4 °F
Humidity: Humidity % 66 % 83 %
Wind Speed: WindSpeedKMH mph 3.2 mph 18.9 mph
Wind Gust: WindSpeedGustKMH mph - -
Wind:- - SW
Pressure: PressurehPa in 1011.4 in -
Precipitation: 3.8 in    
Historical Graphs
 
 
Tabular Data for September 13, 2017
Time Temperature Dew Point Pressure Wind Wind Speed Wind Gust Humidity Rainfall Rate (Hourly)
TemperatureC °F DewpointC °F PressurehPa in Calm     Humidity % HourlyPrecipMM in
00:02 12.5 °F 9.1 °F 1016.5 in SW 9.7 mph 12.9 mph 80 % 0.0 in
00:07 12.4 °F 9.2 °F 1016.8 in SW 6.4 mph 14.5 mph 81 % 0.0 in
00:12 12.4 °F 9.4 °F 1016.8 in SSW 3.2 mph 14.5 mph 82 % 0.0 in
00:17 12.5 °F 9.5 °F 1016.5 in SSW 9.7 mph 14.5 mph 82 % 0.0 in
00:22 12.6 °F 9.6 °F 1016.5 in SSW 9.7 mph 12.9 mph 82 % 0.0 in
00:27 12.6 °F 9.6 °F 1016.5 in SW 11.3 mph 12.9 mph 82 % 0.0 in
00:32 12.6 °F 9.6 °F 1016.5 in WSW 6.4 mph 12.9 mph 82 % 0.0 in
00:37 12.7 °F 9.7 °F 1016.5 in SW 4.8 mph 12.9 mph 82 % 0.0 in
00:42 12.7 °F 9.7 °F 1016.5 in SSE 9.7 mph 14.5 mph 82 % 0.0 in
00:52 12.7 °F 9.7 °F 1016.5 in SW 6.4 mph 17.7 mph 82 % 0.0 in
00:57 12.8 °F 9.8 °F 1016.5 in SW 11.3 mph 19.3 mph 82 % 0.0 in
01:07 12.9 °F 9.9 °F 1016.1 in SW 8.0 mph 20.9 mph 82 % 0.0 in
01:12 13.0 °F 10.0 °F 1016.1 in South 9.7 mph 20.9 mph 82 % 0.0 in
01:17 13.1 °F 9.9 °F 1016.1 in SW 6.4 mph 22.5 mph 81 % 0.0 in
01:22 13.1 °F 9.9 °F 1016.1 in SW 11.3 mph 22.5 mph 81 % 0.0 in
01:27 13.2 °F 10.0 °F 1016.1 in SW 8.0 mph 24.1 mph 81 % 0.0 in
01:32 13.2 °F 10.0 °F 1015.8 in WSW 11.3 mph 24.1 mph 81 % 0.0 in
01:37 13.3 °F 10.1 °F 1015.8 in SSW 9.7 mph 24.1 mph 81 % 0.0 in
01:42 13.4 °F 10.0 °F 1015.8 in SSW 8.0 mph 20.9 mph 80 % 0.0 in
01:47 13.5 °F 10.1 °F 1015.8 in SW 14.5 mph 22.5 mph 80 % 0.0 in
01:52 13.6 °F 10.2 °F 1015.8 in South 12.9 mph 27.4 mph 80 % 0.0 in
01:57 13.6 °F 10.0 °F 1015.8 in SSW 14.5 mph 27.4 mph 79 % 0.0 in
02:02 13.7 °F 10.1 °F 1015.8 in SSE 11.3 mph 27.4 mph 79 % 0.0 in
02:07 13.8 °F 10.2 °F 1015.5 in SW 17.7 mph 27.4 mph 79 % 0.0 in
02:12 13.8 °F 10.2 °F 1015.5 in SSW 19.3 mph 27.4 mph 79 % 0.0 in
02:22 13.9 °F 10.3 °F 1015.5 in SW 20.9 mph 29.0 mph 79 % 0.0 in
02:32 13.9 °F 10.3 °F 1015.1 in SSW 20.9 mph 32.2 mph 79 % 0.0 in
02:37 14.1 °F 10.3 °F 1015.1 in SW 19.3 mph 32.2 mph 78 % 0.0 in
02:42 14.1 °F 10.3 °F 1015.1 in SW 19.3 mph 35.4 mph 78 % 0.0 in
02:47 14.1 °F 10.3 °F 1015.1 in SSW 14.5 mph 35.4 mph 78 % 0.0 in
02:52 14.0 °F 10.4 °F 1015.1 in SSW 25.7 mph 35.4 mph 79 % 0.0 in
03:02 13.9 °F 10.3 °F 1014.8 in WSW 19.3 mph 29.0 mph 79 % 0.0 in
03:12 13.7 °F 10.5 °F 1014.8 in SSW 14.5 mph 30.6 mph 81 % 0.0 in
03:17 13.6 °F 10.6 °F 1014.8 in SW 14.5 mph 30.6 mph 82 % 0.0 in
03:22 13.6 °F 10.6 °F 1014.8 in South 12.9 mph 30.6 mph 82 % 0.0 in
03:32 13.6 °F 10.8 °F 1014.4 in SW 11.3 mph 27.4 mph 83 % 0.0 in
03:42 13.7 °F 11.0 °F 1014.4 in SSW 14.5 mph 27.4 mph 84 % 0.0 in
03:47 13.7 °F 11.0 °F 1014.4 in SW 16.1 mph 27.4 mph 84 % 0.0 in
03:52 13.9 °F 11.1 °F 1014.1 in SW 16.1 mph 27.4 mph 83 % 0.0 in
03:57 14.1 °F 11.1 °F 1013.8 in SSW 17.7 mph 30.6 mph 82 % 0.0 in
04:02 14.1 °F 11.3 °F 1013.8 in WSW 14.5 mph 30.6 mph 83 % 0.0 in
04:07 14.2 °F 11.5 °F 1013.8 in SW 22.5 mph 30.6 mph 84 % 0.0 in
04:12 14.1 °F 11.6 °F 1014.1 in SW 19.3 mph 30.6 mph 85 % 0.0 in
04:17 14.1 °F 11.8 °F 1014.1 in SSW 19.3 mph 35.4 mph 86 % 0.0 in
04:22 14.1 °F 12.0 °F 1014.1 in SW 14.5 mph 35.4 mph 87 % 0.0 in
04:27 13.9 °F 11.9 °F 1013.8 in SSW 27.4 mph 35.4 mph 88 % 0.0 in
04:32 13.7 °F 12.1 °F 1013.8 in WSW 16.1 mph 40.2 mph 90 % 0.0 in
04:37 13.6 °F 12.2 °F 1013.8 in SSW 9.7 mph 40.2 mph 91 % 0.0 in
04:42 13.5 °F 12.2 °F 1013.8 in SW 24.1 mph 40.2 mph 92 % 0.3 in
04:47 13.4 °F 12.1 °F 1013.8 in SW 16.1 mph 29.0 mph 92 % 0.3 in
04:52 13.5 °F 12.4 °F 1013.4 in SSW 14.5 mph 29.0 mph 93 % 0.3 in
04:57 13.5 °F 12.4 °F 1013.4 in SSW 11.3 mph 29.0 mph 93 % 0.3 in
05:02 13.5 °F 12.4 °F 1013.4 in SW 20.9 mph 29.0 mph 93 % 0.3 in
05:12 13.5 °F 12.4 °F 1013.4 in SSW 9.7 mph 29.0 mph 93 % 0.3 in
05:22 13.5 °F 12.4 °F 1013.4 in SSW 14.5 mph 29.0 mph 93 % 0.5 in
05:27 13.6 °F 12.5 °F 1013.4 in SW 14.5 mph 29.0 mph 93 % 0.5 in
05:32 13.6 °F 12.5 °F 1013.4 in WSW 12.9 mph 29.0 mph 93 % 0.5 in
05:37 13.6 °F 12.5 °F 1013.4 in SSW 16.1 mph 25.7 mph 93 % 0.8 in
05:42 13.7 °F 12.4 °F 1013.1 in SW 16.1 mph 25.7 mph 92 % 0.8 in
05:47 13.8 °F 12.5 °F 1013.1 in SW 12.9 mph 30.6 mph 92 % 0.5 in
05:52 13.9 °F 12.6 °F 1013.1 in SW 11.3 mph 30.6 mph 92 % 0.5 in
05:57 14.0 °F 12.6 °F 1013.1 in SW 20.9 mph 30.6 mph 91 % 0.5 in
06:02 14.2 °F 12.8 °F 1013.1 in SW 14.5 mph 25.7 mph 91 % 0.5 in
06:12 14.3 °F 12.9 °F 1013.1 in SW 12.9 mph 27.4 mph 91 % 0.5 in
06:17 14.3 °F 12.9 °F 1013.1 in WSW 14.5 mph 30.6 mph 91 % 0.5 in
06:22 14.3 °F 13.0 °F 1013.1 in SW 24.1 mph 30.6 mph 92 % 0.5 in
06:32 14.3 °F 13.0 °F 1013.1 in SW 19.3 mph 35.4 mph 92 % 0.5 in
06:37 14.3 °F 13.2 °F 1013.1 in SSW 25.7 mph 35.4 mph 93 % 0.5 in
06:42 14.3 °F 13.2 °F 1013.1 in SW 24.1 mph 35.4 mph 93 % 0.3 in
06:47 14.3 °F 13.2 °F 1013.1 in SW 11.3 mph 35.4 mph 93 % 0.3 in
06:52 14.4 °F 13.3 °F 1013.1 in WSW 22.5 mph 33.8 mph 93 % 0.5 in
06:57 14.3 °F 13.3 °F 1013.1 in SW 17.7 mph 33.8 mph 94 % 0.5 in
07:02 14.4 °F 13.4 °F 1013.1 in SSW 17.7 mph 29.0 mph 94 % 0.5 in
07:07 14.5 °F 13.5 °F 1013.4 in SW 24.1 mph 29.0 mph 94 % 0.5 in
07:17 14.6 °F 13.6 °F 1013.4 in WSW 22.5 mph 33.8 mph 94 % 0.5 in
07:22 14.6 °F 13.6 °F 1013.4 in SW 19.3 mph 33.8 mph 94 % 0.5 in
07:32 14.7 °F 13.9 °F 1013.4 in SSW 17.7 mph 33.8 mph 95 % 0.5 in
07:37 14.7 °F 13.9 °F 1013.4 in West 17.7 mph 30.6 mph 95 % 0.5 in
07:42 14.8 °F 13.8 °F 1013.4 in SW 27.4 mph 30.6 mph 94 % 0.5 in
07:47 14.8 °F 13.8 °F 1013.4 in SW 16.1 mph 35.4 mph 94 % 0.5 in
07:52 14.8 °F 13.8 °F 1013.4 in SW 11.3 mph 35.4 mph 94 % 0.5 in
07:57 14.8 °F 14.0 °F 1013.4 in SW 19.3 mph 35.4 mph 95 % 0.3 in
08:02 14.8 °F 14.0 °F 1013.4 in SW 17.7 mph 35.4 mph 95 % 0.3 in
08:12 14.9 °F 14.1 °F 1013.8 in SW 12.9 mph 33.8 mph 95 % 0.3 in
08:17 14.9 °F 14.1 °F 1013.8 in SW 20.9 mph 30.6 mph 95 % 0.5 in
08:22 14.9 °F 14.1 °F 1013.8 in WSW 14.5 mph 30.6 mph 95 % 0.5 in
08:32 14.9 °F 14.1 °F 1013.8 in SW 25.7 mph 29.0 mph 95 % 0.3 in
08:42 15.1 °F 14.5 °F 1013.8 in SW 25.7 mph 29.0 mph 96 % 0.5 in
08:47 15.1 °F 14.5 °F 1013.8 in SW 20.9 mph 30.6 mph 96 % 0.5 in
08:52 15.2 °F 14.6 °F 1013.8 in SSW 9.7 mph 30.6 mph 96 % 0.5 in
08:57 15.2 °F 14.6 °F 1013.8 in SW 19.3 mph 30.6 mph 96 % 0.5 in
09:02 15.3 °F 14.7 °F 1013.8 in SW 14.5 mph 29.0 mph 96 % 0.5 in
09:12 15.4 °F 14.8 °F 1014.1 in SW 9.7 mph 27.4 mph 96 % 0.3 in
09:17 15.4 °F 14.8 °F 1014.1 in SSW 14.5 mph 25.7 mph 96 % 0.3 in
09:22 15.4 °F 14.8 °F 1014.1 in SW 17.7 mph 25.7 mph 96 % 0.3 in
09:32 15.6 °F 15.0 °F 1014.4 in SSW 16.1 mph 25.7 mph 96 % 0.3 in
09:42 15.7 °F 15.1 °F 1014.4 in SW 14.5 mph 30.6 mph 96 % 0.3 in
09:52 15.7 °F 15.1 °F 1014.4 in WSW 11.3 mph 25.7 mph 96 % 0.3 in
09:57 15.8 °F 15.2 °F 1014.4 in West 9.7 mph 25.7 mph 96 % 0.3 in
10:02 15.8 °F 15.2 °F 1014.4 in South 14.5 mph 24.1 mph 96 % 0.3 in
10:12 16.0 °F 15.4 °F 1014.4 in WSW 14.5 mph 19.3 mph 96 % 0.3 in
10:17 16.2 °F 15.6 °F 1014.4 in WSW 9.7 mph 27.4 mph 96 % 0.3 in
10:22 16.2 °F 15.6 °F 1014.4 in WSW 22.5 mph 27.4 mph 96 % 0.3 in
10:27 16.3 °F 15.7 °F 1014.4 in SW 22.5 mph 27.4 mph 96 % 0.0 in
10:32 16.4 °F 15.8 °F 1014.4 in SW 11.3 mph 30.6 mph 96 % 0.0 in
10:42 16.7 °F 16.1 °F 1014.4 in SW 19.3 mph 27.4 mph 96 % 0.0 in
10:47 16.7 °F 16.1 °F 1014.8 in SW 9.7 mph 27.4 mph 96 % 0.0 in
10:52 16.8 °F 16.2 °F 1014.8 in SSW 12.9 mph 27.4 mph 96 % 0.3 in
10:57 16.8 °F 16.2 °F 1014.8 in WSW 16.1 mph 30.6 mph 96 % 0.3 in
11:02 16.8 °F 16.2 °F 1014.8 in SW 9.7 mph 30.6 mph 96 % 0.3 in
11:12 16.8 °F 16.2 °F 1014.8 in SSW 12.9 mph 30.6 mph 96 % 0.5 in
11:17 16.8 °F 16.2 °F 1014.8 in SSW 9.7 mph 29.0 mph 96 % 0.5 in
11:22 16.9 °F 16.3 °F 1014.8 in SSW 12.9 mph 29.0 mph 96 % 0.8 in
11:32 17.1 °F 16.5 °F 1014.8 in SW 12.9 mph 30.6 mph 96 % 0.8 in
11:42 17.1 °F 16.5 °F 1014.4 in WSW 22.5 mph 30.6 mph 96 % 1.0 in
11:47 17.1 °F 16.3 °F 1014.4 in WSW 17.7 mph 30.6 mph 95 % 1.0 in
11:52 17.2 °F 16.4 °F 1014.4 in WSW 22.5 mph 30.6 mph 95 % 1.0 in
12:02 17.2 °F 16.4 °F 1014.4 in SW 14.5 mph 30.6 mph 95 % 1.3 in
12:12 17.2 °F 16.6 °F 1014.4 in SW 20.9 mph 27.4 mph 96 % 1.0 in
12:17 17.2 °F 16.4 °F 1014.4 in SW 14.5 mph 33.8 mph 95 % 1.0 in
12:22 17.3 °F 16.5 °F 1014.4 in SW 20.9 mph 33.8 mph 95 % 1.0 in
12:32 17.5 °F 16.7 °F 1014.4 in SW 16.1 mph 33.8 mph 95 % 0.8 in
12:42 17.7 °F 16.7 °F 1014.4 in WSW 11.3 mph 37.0 mph 94 % 0.5 in
12:52 17.9 °F 16.8 °F 1014.4 in SW 12.9 mph 37.0 mph 93 % 0.5 in
12:57 18.0 °F 16.9 °F 1014.4 in SW 22.5 mph 33.8 mph 93 % 0.5 in
13:02 18.1 °F 16.9 °F 1014.4 in WSW 24.1 mph 33.8 mph 93 % 0.5 in
13:12 18.3 °F 17.0 °F 1014.4 in SW 16.1 mph 32.2 mph 92 % 0.3 in
13:17 18.4 °F 17.1 °F 1014.4 in SSW 16.1 mph 32.2 mph 92 % 0.0 in
13:22 18.6 °F 17.1 °F 1014.4 in SSW 20.9 mph 33.8 mph 91 % 0.0 in
13:27 18.8 °F 17.1 °F 1014.4 in SW 17.7 mph 33.8 mph 90 % 0.0 in
13:32 19.0 °F 17.1 °F 1014.1 in SW 27.4 mph 33.8 mph 89 % 0.0 in
13:37 19.1 °F 17.2 °F 1014.4 in WSW 12.9 mph 33.8 mph 89 % 0.0 in
13:42 19.2 °F 17.3 °F 1014.1 in WSW 9.7 mph 37.0 mph 89 % 0.0 in
13:47 19.3 °F 17.3 °F 1014.4 in South 12.9 mph 37.0 mph 88 % 0.0 in
13:52 19.3 °F 17.1 °F 1014.4 in WSW 22.5 mph 35.4 mph 87 % 0.0 in
14:02 19.4 °F 17.2 °F 1014.1 in WSW 8.0 mph 30.6 mph 87 % 0.0 in
14:12 19.9 °F 17.3 °F 1013.8 in West 16.1 mph 35.4 mph 85 % 0.0 in
14:17 20.2 °F 17.4 °F 1013.8 in SSW 16.1 mph 35.4 mph 84 % 0.0 in
14:27 20.3 °F 17.3 °F 1013.8 in SW 19.3 mph 35.4 mph 83 % 0.0 in
14:32 20.3 °F 17.1 °F 1013.8 in SW 29.0 mph 35.4 mph 82 % 0.0 in
14:37 20.4 °F 17.2 °F 1013.8 in WSW 19.3 mph 35.4 mph 82 % 0.0 in
14:42 20.5 °F 16.9 °F 1013.8 in West 20.9 mph 35.4 mph 80 % 0.0 in
14:47 20.6 °F 16.8 °F 1013.8 in WSW 37.0 mph 38.6 mph 79 % 0.0 in
14:57 20.8 °F 17.0 °F 1013.8 in WSW 16.1 mph 38.6 mph 79 % 0.0 in
15:02 20.9 °F 16.7 °F 1013.4 in WSW 27.4 mph 37.0 mph 77 % 0.0 in
15:12 21.1 °F 16.9 °F 1013.4 in SW 16.1 mph 38.6 mph 77 % 0.0 in
15:17 21.1 °F 16.7 °F 1013.4 in WSW 30.6 mph 38.6 mph 76 % 0.0 in
15:22 21.1 °F 16.7 °F 1013.4 in SW 22.5 mph 37.0 mph 76 % 0.0 in
15:32 21.3 °F 16.9 °F 1013.1 in WSW 19.3 mph 41.8 mph 76 % 0.0 in
15:37 21.4 °F 17.0 °F 1013.1 in WNW 17.7 mph 41.8 mph 76 % 0.0 in
15:42 21.9 °F 17.1 °F 1012.8 in WSW 20.9 mph 41.8 mph 74 % 0.0 in
15:47 22.2 °F 16.9 °F 1012.8 in SW 25.7 mph 51.5 mph 72 % 0.0 in
15:52 22.3 °F 16.8 °F 1012.8 in WSW 25.7 mph 51.5 mph 71 % 0.0 in
15:57 22.3 °F 16.6 °F 1012.8 in SW 16.1 mph 51.5 mph 70 % 0.0 in
16:02 22.3 °F 16.6 °F 1012.8 in WSW 37.0 mph 51.5 mph 70 % 0.0 in
16:12 22.2 °F 16.9 °F 1012.8 in SW 22.5 mph 49.9 mph 72 % 0.0 in
16:17 22.2 °F 16.9 °F 1012.8 in SSE 17.7 mph 49.9 mph 72 % 0.0 in
16:22 22.1 °F 16.8 °F 1012.8 in WNW 14.5 mph 41.8 mph 72 % 0.0 in
16:27 22.0 °F 16.9 °F 1012.8 in SW 27.4 mph 41.8 mph 73 % 0.0 in
16:32 22.0 °F 16.9 °F 1012.8 in WSW 25.7 mph 41.8 mph 73 % 0.0 in
16:42 22.2 °F 16.9 °F 1012.8 in WSW 25.7 mph 43.4 mph 72 % 0.0 in
16:47 22.3 °F 16.8 °F 1012.8 in West 25.7 mph 43.4 mph 71 % 0.0 in
16:52 22.4 °F 16.7 °F 1012.8 in SW 29.0 mph 43.4 mph 70 % 0.0 in
16:57 22.4 °F 16.7 °F 1012.8 in WSW 17.7 mph 43.4 mph 70 % 0.0 in
17:02 22.4 °F 16.9 °F 1012.8 in WSW 33.8 mph 43.4 mph 71 % 0.0 in
17:12 22.5 °F 16.1 °F 1012.8 in WSW 43.4 mph 43.4 mph 67 % 0.0 in
17:17 22.6 °F 16.2 °F 1012.8 in SW 25.7 mph 45.1 mph 67 % 0.0 in
17:22 22.7 °F 16.0 °F 1012.8 in SSW 14.5 mph 45.1 mph 66 % 0.0 in
17:27 22.6 °F 16.2 °F 1012.8 in West 20.9 mph 45.1 mph 67 % 0.0 in
17:32 22.5 °F 16.3 °F 1012.8 in WSW 11.3 mph 43.4 mph 68 % 0.0 in
17:42 22.6 °F 15.9 °F 1012.4 in SW 20.9 mph 43.4 mph 66 % 0.0 in
17:47 22.6 °F 15.9 °F 1012.4 in SW 35.4 mph 43.4 mph 66 % 0.0 in
17:52 22.4 °F 15.7 °F 1012.1 in West 32.2 mph 46.7 mph 66 % 0.0 in
17:57 22.3 °F 15.9 °F 1012.4 in WSW 22.5 mph 46.7 mph 67 % 0.0 in
18:02 22.3 °F 16.1 °F 1012.4 in WSW 17.7 mph 46.7 mph 68 % 0.0 in
18:12 22.4 °F 16.2 °F 1012.1 in WSW 17.7 mph 48.3 mph 68 % 0.0 in
18:17 22.4 °F 15.7 °F 1012.1 in WSW 19.3 mph 48.3 mph 66 % 0.0 in
18:22 22.3 °F 15.9 °F 1012.1 in West 17.7 mph 48.3 mph 67 % 0.0 in
18:27 22.2 °F 15.8 °F 1011.7 in WSW 19.3 mph 48.3 mph 67 % 0.0 in
18:32 22.1 °F 15.7 °F 1011.7 in WSW 32.2 mph 45.1 mph 67 % 0.0 in
18:37 21.9 °F 16.0 °F 1011.7 in WSW 25.7 mph 53.1 mph 69 % 0.0 in
18:42 21.8 °F 15.9 °F 1011.7 in WSW 32.2 mph 53.1 mph 69 % 0.0 in
18:47 21.8 °F 16.1 °F 1011.7 in West 24.1 mph 46.7 mph 70 % 0.0 in
18:52 21.7 °F 16.0 °F 1011.7 in WSW 32.2 mph 46.7 mph 70 % 0.0 in
18:57 21.7 °F 16.2 °F 1011.7 in SW 22.5 mph 49.9 mph 71 % 0.0 in
19:02 21.6 °F 15.9 °F 1011.7 in SW 27.4 mph 49.9 mph 70 % 0.0 in
19:12 21.3 °F 15.8 °F 1012.1 in SW 27.4 mph 40.2 mph 71 % 0.0 in
19:17 21.3 °F 15.8 °F 1012.1 in WSW 38.6 mph 45.1 mph 71 % 0.0 in
19:22 21.2 °F 15.5 °F 1012.1 in SW 17.7 mph 46.7 mph 70 % 0.0 in
19:27 21.2 °F 15.5 °F 1012.1 in SW 41.8 mph 56.3 mph 70 % 0.0 in
19:32 21.1 °F 15.6 °F 1012.1 in South 16.1 mph 56.3 mph 71 % 0.0 in
19:42 21.0 °F 15.5 °F 1012.1 in SW 22.5 mph 45.1 mph 71 % 0.0 in
19:47 20.9 °F 15.4 °F 1012.1 in West 37.0 mph 41.8 mph 71 % 0.0 in
19:52 20.9 °F 15.7 °F 1012.1 in SW 12.9 mph 48.3 mph 72 % 0.0 in
20:02 20.8 °F 15.8 °F 1011.7 in SW 22.5 mph 48.3 mph 73 % 0.0 in
20:12 20.7 °F 15.7 °F 1011.7 in SW 38.6 mph 48.3 mph 73 % 0.0 in
20:17 20.7 °F 15.7 °F 1012.1 in SW 22.5 mph 48.3 mph 73 % 0.0 in
20:22 20.6 °F 15.8 °F 1012.1 in WSW 29.0 mph 41.8 mph 74 % 0.0 in
20:27 20.6 °F 15.8 °F 1012.1 in WSW 22.5 mph 41.8 mph 74 % 0.0 in
20:32 20.5 °F 15.7 °F 1011.7 in WSW 38.6 mph 40.2 mph 74 % 0.0 in
20:42 20.4 °F 15.8 °F 1011.7 in SSW 19.3 mph 41.8 mph 75 % 0.0 in
20:47 20.4 °F 16.0 °F 1012.1 in West 20.9 mph 48.3 mph 76 % 0.0 in
20:52 20.3 °F 15.9 °F 1011.7 in WSW 25.7 mph 48.3 mph 76 % 0.0 in
21:02 20.2 °F 16.0 °F 1012.1 in SW 12.9 mph 43.4 mph 77 % 0.0 in
21:12 20.1 °F 15.9 °F 1011.7 in SW 25.7 mph 43.4 mph 77 % 0.0 in
21:17 19.9 °F 15.9 °F 1012.1 in WSW 20.9 mph 43.4 mph 78 % 0.0 in
21:22 19.8 °F 15.9 °F 1012.1 in SW 16.1 mph 43.4 mph 78 % 0.0 in
21:32 19.7 °F 16.0 °F 1012.1 in SW 19.3 mph 51.5 mph 79 % 0.0 in
21:37 19.7 °F 16.0 °F 1012.1 in WSW 22.5 mph 51.5 mph 79 % 0.0 in
21:42 19.6 °F 16.1 °F 1011.7 in SW 27.4 mph 51.5 mph 80 % 0.0 in
21:47 19.6 °F 16.1 °F 1012.1 in WSW 19.3 mph 49.9 mph 80 % 0.0 in
21:57 19.4 °F 16.1 °F 1012.1 in SW 25.7 mph 41.8 mph 81 % 0.0 in
22:02 19.3 °F 16.0 °F 1012.1 in West 16.1 mph 45.1 mph 81 % 0.0 in
22:07 19.1 °F 16.0 °F 1012.1 in SW 17.7 mph 45.1 mph 82 % 0.0 in
22:12 18.9 °F 15.9 °F 1012.1 in WSW 19.3 mph 45.1 mph 83 % 0.0 in
22:17 18.8 °F 16.0 °F 1012.1 in SSE 25.7 mph 38.6 mph 84 % 0.0 in
22:22 18.8 °F 16.0 °F 1012.1 in WSW 29.0 mph 41.8 mph 84 % 0.0 in
22:32 18.7 °F 16.1 °F 1012.1 in South 11.3 mph 43.4 mph 85 % 0.0 in
22:42 18.5 °F 15.9 °F 1012.1 in WSW 20.9 mph 45.1 mph 85 % 0.0 in
22:47 18.5 °F 15.9 °F 1011.7 in SW 20.9 mph 45.1 mph 85 % 0.0 in
22:52 18.6 °F 16.0 °F 1011.7 in SW 17.7 mph 41.8 mph 85 % 0.0 in
22:57 18.4 °F 16.0 °F 1012.1 in SSW 12.9 mph 41.8 mph 86 % 0.0 in
23:02 18.3 °F 15.7 °F 1012.1 in WSW 37.0 mph 41.8 mph 85 % 0.0 in
23:12 18.5 °F 15.6 °F 1012.1 in WSW 37.0 mph 41.8 mph 83 % 0.0 in
23:17 18.5 °F 15.4 °F 1011.7 in SSW 20.9 mph 49.9 mph 82 % 0.0 in
23:22 18.4 °F 15.1 °F 1012.1 in WSW 33.8 mph 49.9 mph 81 % 0.0 in
23:27 18.4 °F 14.9 °F 1011.7 in WSW 16.1 mph 49.9 mph 80 % 0.0 in
23:32 18.3 °F 14.8 °F 1011.7 in SW 29.0 mph 48.3 mph 80 % 0.0 in
23:37 18.3 °F 15.0 °F 1011.7 in SW 17.7 mph 56.3 mph 81 % 0.0 in
23:42 18.2 °F 15.1 °F 1011.7 in WSW 20.9 mph 56.3 mph 82 % 0.0 in
23:47 18.1 °F 15.2 °F 1011.7 in SW 25.7 mph 56.3 mph 83 % 0.0 in
23:57 17.9 °F 15.2 °F 1011.4 in SSW 24.1 mph 51.5 mph 84 % 0.0 in
Meteo18
Compliments of Weather Underground - 4 mb

Script developed by  Jim McMurry - jmcmurry@mwt.net Adapted for the template by  Wim van der Kuil - Leuven-Template.eu

You find our weather info also at:

European Weather Network

Weather Underground

Equipment we use:

Weather-station
Davis Vue

Weather-program
Meteobridge

Weather-server
Raspberry PI 2 B+

Provider
1 and 1

Davis Vue

Meteobridge

Raspberry PI 2 B+

1 and 1